[Iaude] MPEC X228: 2023 XJ10 [a=1.48,e=0.52,i=15.3,H=25.4]

mpec at marsden.cfa.harvard.edu mpec at marsden.cfa.harvard.edu
Mon Dec 11 23:04:05 EST 2023


M.P.E.C. 2023-X228                            Issued 2023 December 12, 04:02 UT

     The Minor Planet Electronic Circulars contain information on unusual
         minor planets, routine data on comets and natural satellites,
         and occasional editorial announcements.  They are published
    on behalf of Division F of the International Astronomical Union by the
          Minor Planet Center, Smithsonian Astrophysical Observatory,
                          Cambridge, MA 02138, U.S.A.
			  
             Prepared using the Tamkin Foundation Computer Network

                              MPC at CFA.HARVARD.EDU
            URL https://www.minorplanetcenter.net/    ISSN 1523-6714

                                   2023 XJ10                                    


Observations:
     K23X10J* C2023 12 10.41106604 20 20.922-09 33 19.43         20.73wXEX228F51
     K23X10J  C2023 12 10.43853004 20 01.998-09 33 41.72         20.74wXEX228F51
     K23X10J  C2023 12 10.45014604 19 53.983-09 33 51.03         20.38wXEX228F51
     K23X10J 7C2023 12 10.95228504 14 12.605-09 41 32.41         21.0 GVEX228Z84
     K23X10J 7C2023 12 10.95780404 14 08.278-09 41 37.17         20.8 GVEX228Z84
     K23X10J 7C2023 12 10.96331104 14 03.942-09 41 41.96         20.6 GVEX228Z84
     K23X10J |C2023 12 12.08303003 57 47.060-09 55 39.20         20.5 GVEX228807
     K23X10J |C2023 12 12.08795003 57 41.640-09 55 44.70         20.3 GVEX228807
     K23X10J |C2023 12 12.09288003 57 36.230-09 55 48.90         20.3 GVEX228807
     K23X10J KC2023 12 12.11717203 57 11.80 -09 59 17.4          20.5 GVEX228H21
     K23X10J KC2023 12 12.12004203 57 08.65 -09 59 20.5          20.3 GVEX228H21
     K23X10J KC2023 12 12.12300803 57 05.38 -09 59 23.2          20.6 GVEX228H21

Observer details:
807 Cerro Tololo Observatory, La Serena.  Observers T. Linder, R. Holmes, L.
    Horn.  0.61-m f/11 Ritchey-Chretien + CCD.
F51 Pan-STARRS 1, Haleakala.  Observers J. Herman, T. Lowe, P. Minguez, A.
    Schultz, I. Smith.  Measurers K. Chambers, T. de Boer, J. Fairlamb, H.
    Gao, M. Huber, C.-C. Lin, E. Magnier, Y. Ramanjooloo, R. Wainscoat, R.
    Weryk.  1.8-m Ritchey-Chretien + CCD.
H21 Astronomical Research Observatory, Westfield.  Observer R. Holmes.
    Measurers T. Linder, R. Holmes, L. Horn.  0.81-m f/4.0 astrograph + CCD.
Z84 Calar Alto-Schmidt.  Observers R. Kresken, F. Ocana, M. Micheli, L.
    Conversi.  Measurers F. Ocana, M. Micheli.  0.8-m f/3 Schmidt + CCD.

Orbital elements:
2023 XJ10                                                Earth MOID = 0.0022 AU
Epoch 2023 Sept. 13.0 TT = JDT 2460200.5                MPC                     
M 280.51131              (2000.0)            P               Q                  
n   0.54973484     Peri.   78.73720     -0.91848217     -0.29565651             
a   1.4758216      Node    83.65157     +0.17096262     -0.89571529             
e   0.5179669      Incl.   15.32278     +0.35659821     -0.33208637             
P   1.79           H   25.44          G   0.15           U   8                  
Residuals in seconds of arc
231210 F51  0.0   0.0     231210 Z84  0.1+  0.0     231212 807  0.1-  0.1+
231210 F51  0.0   0.0     231210 Z84  0.0   0.0     231212 H21  0.0   0.1+
231210 F51  0.1+  0.0     231212 807  0.0   0.3+    231212 H21  0.1+  0.2-
231210 Z84  0.0   0.1-    231212 807  0.3-  0.5-    231212 H21  0.1+  0.1+

Ephemeris:
2023 XJ10                a,e,i = 1.48, 0.52, 15                  q = 0.7114
Date    TT    R. A. (2000) Decl.     Delta      r    Elong.  Phase     V
2023 11 12    05 15 28.1 -04 55 40   0.3493  1.2805   141.0    29.1    25.0
...
2023 11 27    05 09 30.7 -07 16 24   0.1931  1.1552   148.0    26.9    23.4
...
2023 12 05    04 53 19.2 -08 30 37   0.1160  1.0868   149.1    27.7    22.2
...
2023 12 11    04 13 37.3 -09 40 29   0.06127 1.0354   144.7    33.4    20.8
2023 12 12    03 59 09.4 -09 55 22   0.05262 1.0269   142.4    35.9    20.6
2023 12 13    03 39 09.0 -10 10 35   0.04426 1.0183   138.9    39.5    20.3
...
2023 12 19    20 59 35.2 -00 18 14   0.02730 0.9676    52.6   126.1    22.9
...
2023 12 27    18 26 57.9 +05 49 53   0.09432 0.9023    29.2   147.8    28.1
...
2024 01 11    17 58 19.8 +04 28 48   0.2418  0.7948    34.1   136.1    28.2

A. U. Tomatic                (C) Copyright 2023 MPC           M.P.E.C. 2023-X228





More information about the Iaude mailing list